Location: Great Malvern
(52.1167°N, 2.3167°W)
Time: 11:24:03
(UTC+00:00)

Cosmos 494 Rocket - Pass Details

Date: 18 September 2020
Orbit: 741 x 771 km, 74.1° (Epoch: 25 October)

Event Time Altitude Azimuth Distance (km) Brightness Sun altitude
Rises 19:55:02 0° 335° (NNW) 3,243 8.0 -15.5°
Reaches altitude 10° 19:57:26 10° 338° (NNW) 2,317 7.1 -15.9°
Maximum altitude 20:02:41 67° 62° (ENE) 836 4.0 -16.6°
Enters shadow 20:05:36 27° 138° (SE) 1,463 4.9 -17.0°
